| time (UTC) | temp F | wind direction | speed knots | gust knots | rain 1hr in | rain 24hr in | rain mn in | humidity % | barometer mb |
| 20260505170332 | 66 | 234 | 6.1 | 9.6 | 0.00 | 0.00 | 0.00 | 67 | 1011.9 |
| 20260505165329 | 66 | 273 | 7.0 | 9.6 | 0.00 | 0.00 | 0.00 | 69 | 1011.9 |
| 20260505164341 | 66 | 282 | 6.1 | 10.4 | 0.00 | 0.00 | 0.00 | 67 | 1012.0 |
| 20260505163324 | 66 | 257 | 5.2 | 9.6 | 0.00 | 0.00 | 0.00 | 68 | 1011.8 |
| 20260505162402 | 65 | 279 | 7.0 | 11.3 | 0.00 | 0.00 | 0.00 | 68 | 1011.8 |
| 20260505161331 | 65 | 288 | 7.0 | 10.4 | 0.00 | 0.00 | 0.00 | 69 | 1011.8 |
| 20260505160327 | 65 | 245 | 7.8 | 10.4 | 0.00 | 0.00 | 0.00 | 70 | 1011.8 |
| 20260505153339 | 64 | 261 | 7.8 | 10.4 | 0.00 | 0.00 | 0.00 | 71 | 1011.6 |
| 20260505152341 | 63 | 265 | 8.7 | 10.4 | 0.00 | 0.00 | 0.00 | 72 | 1011.5 |
| 20260505151340 | 63 | 232 | 7.0 | 11.3 | 0.00 | 0.00 | 0.00 | 72 | 1011.5 |
| 20260505150346 | 62 | 259 | 7.0 | 11.3 | 0.00 | 0.00 | 0.00 | 73 | 1011.4 |
| 20260505140332 | 53 | 149 | 1.7 | 2.6 | 0.00 | 0.00 | 0.00 | 74 | 1010.8 |
| 20260505124340 | 48 | 152 | 0.0 | 5.2 | 0.00 | 0.00 | 0.00 | 79 | 1010.1 |
| 20260505123350 | 48 | 153 | 2.6 | 5.2 | 0.00 | 0.00 | 0.00 | 79 | 1010.1 |
| 20260505122328 | 48 | 163 | 0.0 | 1.7 | 0.00 | 0.00 | 0.00 | 80 | 1010.0 |
| 20260505121345 | 49 | 161 | 0.0 | 0.0 | 0.00 | 0.00 | 0.00 | 80 | 1009.8 |
| 20260505120328 | 49 | 161 | 0.0 | 1.7 | 0.00 | 0.00 | 0.00 | 80 | 1009.8 |
| 20260505115340 | 49 | 161 | 0.0 | 0.0 | 0.00 | 0.00 | 0.00 | 80 | 1009.8 |
| 20260505114330 | 50 | 161 | 0.0 | 0.9 | 0.00 | 0.00 | 0.00 | 80 | 1009.7 |
| 20260505113349 | 50 | 161 | 0.0 | 0.0 | 0.00 | 0.00 | 0.00 | 80 | 1009.5 |
| 20260505112331 | 51 | 161 | 0.9 | 2.6 | 0.00 | 0.00 | 0.00 | 80 | 1009.5 |
| 20260505111339 | 51 | 153 | 0.0 | 0.9 | 0.00 | 0.00 | 0.00 | 80 | 1009.4 |
| 20260505110342 | 52 | 153 | 0.0 | 1.7 | 0.00 | 0.00 | 0.00 | 80 | 1009.2 |
| 20260505101332 | 55 | 143 | 4.3 | 5.2 | 0.00 | 0.00 | 0.00 | 78 | 1008.8 |
| 20260505100345 | 55 | 150 | 1.7 | 4.3 | 0.00 | 0.00 | 0.00 | 78 | 1008.7 |
| 20260505095328 | 55 | 143 | 0.0 | 1.7 | 0.00 | 0.00 | 0.00 | 78 | 1008.7 |
| 20260505094332 | 55 | 143 | 1.7 | 3.5 | 0.00 | 0.00 | 0.00 | 78 | 1008.6 |
| 20260505093359 | 55 | 156 | 0.0 | 0.0 | 0.00 | 0.00 | 0.00 | 77 | 1008.6 |
| 20260505092346 | 56 | 156 | 0.0 | 1.7 | 0.00 | 0.00 | 0.00 | 77 | 1008.6 |
| 20260505091332 | 56 | 156 | 2.6 | 3.5 | 0.00 | 0.00 | 0.00 | 76 | 1008.5 |
| 20260505090351 | 56 | 149 | 1.7 | 3.5 | 0.00 | 0.00 | 0.00 | 77 | 1008.6 |
| 20260505085339 | 56 | 148 | 2.6 | 4.3 | 0.00 | 0.00 | 0.00 | 77 | 1008.5 |
| 20260505084336 | 56 | 137 | 3.5 | 4.3 | 0.00 | 0.00 | 0.00 | 78 | 1008.4 |
| 20260505083324 | 55 | 216 | 0.0 | 0.0 | 0.00 | 0.00 | 0.00 | 79 | 1008.3 |
| 20260505082337 | 55 | 237 | 0.0 | 0.9 | 0.00 | 0.00 | 0.00 | 79 | 1008.2 |
| 20260505081357 | 55 | 237 | 0.0 | 2.6 | 0.00 | 0.00 | 0.00 | 78 | 1008.3 |
| 20260505080336 | 55 | 237 | 1.7 | 3.5 | 0.00 | 0.00 | 0.00 | 78 | 1008.3 |
| 20260505075329 | 56 | 234 | 2.6 | 4.3 | 0.00 | 0.00 | 0.00 | 76 | 1008.2 |
| 20260505074409 | 56 | 221 | 2.6 | 3.5 | 0.00 | 0.00 | 0.00 | 76 | 1008.2 |
| 20260505073353 | 57 | 221 | 1.7 | 2.6 | 0.00 | 0.00 | 0.00 | 75 | 1008.0 |
| 20260505072337 | 57 | 221 | 0.0 | 0.0 | 0.00 | 0.00 | 0.00 | 74 | 1008.0 |
| 20260505071335 | 57 | 221 | 0.0 | 0.0 | 0.00 | 0.00 | 0.00 | 74 | 1008.1 |
| 20260505070347 | 58 | 221 | 0.0 | 3.5 | 0.00 | 0.00 | 0.00 | 73 | 1007.9 |
| 20260505065345 | 57 | 213 | 1.7 | 2.6 | 0.00 | 0.00 | 0.00 | 74 | 1007.8 |
| 20260505064335 | 56 | 206 | 2.6 | 3.5 | 0.00 | 0.00 | 0.00 | 75 | 1007.6 |
| 20260505063351 | 56 | 201 | 0.0 | 0.0 | 0.00 | 0.00 | 0.00 | 75 | 1007.6 |
| 20260505062332 | 56 | 201 | 0.0 | 0.0 | 0.00 | 0.00 | 0.00 | 74 | 1007.6 |
| 20260505061340 | 57 | 201 | 0.0 | 0.9 | 0.00 | 0.00 | 0.00 | 74 | 1007.6 |
| 20260505060358 | 57 | 201 | 0.0 | 1.7 | 0.00 | 0.00 | 0.00 | 73 | 1007.6 |
| 20260505055345 | 57 | 147 | 0.0 | 1.7 | 0.00 | 0.00 | 0.00 | 72 | 1007.4 |
| 20260505054339 | 58 | 146 | 0.9 | 2.6 | 0.00 | 0.00 | 0.00 | 71 | 1007.2 |
| 20260505053349 | 58 | 146 | 0.0 | 2.6 | 0.00 | 0.00 | 0.00 | 71 | 1007.0 |
| 20260505052337 | 57 | 146 | 1.7 | 4.3 | 0.00 | 0.00 | 0.00 | 72 | 1007.1 |
| 20260505051328 | 57 | 169 | 0.9 | 2.6 | 0.00 | 0.00 | 0.00 | 71 | 1007.0 |
| 20260505050331 | 58 | 170 | 0.0 | 0.0 | 0.00 | 0.00 | 0.00 | 70 | 1007.0 |
| 20260505041358 | 60 | 164 | 0.0 | 3.5 | 0.00 | 0.00 | 0.00 | 68 | 1006.8 |
| 20260505040338 | 60 | 151 | 1.7 | 2.6 | 0.00 | 0.00 | 0.00 | 67 | 1006.8 |
| 20260505035336 | 62 | 151 | 2.6 | 3.5 | 0.00 | 0.00 | 0.00 | 65 | 1006.6 |
| 20260505034350 | 62 | 167 | 2.6 | 4.3 | 0.00 | 0.00 | 0.00 | 66 | 1006.5 |
| 20260505033332 | 61 | 155 | 3.5 | 4.3 | 0.00 | 0.00 | 0.00 | 68 | 1006.4 |
| 20260505032400 | 62 | 156 | 0.0 | 0.0 | 0.00 | 0.00 | 0.00 | 66 | 1006.3 |
| 20260505031352 | 64 | 156 | 0.0 | 2.6 | 0.00 | 0.00 | 0.00 | 66 | 1006.2 |
| 20260505030332 | 66 | 155 | 1.7 | 3.5 | 0.00 | 0.00 | 0.00 | 64 | 1006.2 |
| 20260505025332 | 68 | 161 | 0.0 | 0.9 | 0.00 | 0.00 | 0.00 | 58 | 1006.2 |
| 20260505024350 | 70 | 161 | 0.0 | 0.9 | 0.00 | 0.00 | 0.00 | 56 | 1006.1 |
| 20260505023338 | 73 | 160 | 0.0 | 1.7 | 0.00 | 0.00 | 0.00 | 51 | 1006.1 |
| 20260505022326 | 77 | 5 | 0.9 | 1.7 | 0.00 | 0.00 | 0.00 | 50 | 1006.1 |
| 20260505021349 | 78 | 9 | 0.0 | 1.7 | 0.00 | 0.00 | 0.00 | 47 | 1006.1 |
| 20260505020424 | 79 | 9 | 0.0 | 1.7 | 0.00 | 0.00 | 0.00 | 46 | 1006.1 |
| 20260505015328 | 79 | 9 | 0.0 | 1.7 | 0.00 | 0.00 | 0.00 | 40 | 1006.2 |
| 20260505014349 | 81 | 9 | 0.9 | 4.3 | 0.00 | 0.00 | 0.00 | 36 | 1006.3 |
| 20260505013331 | 81 | 10 | 2.6 | 6.1 | 0.00 | 0.00 | 0.00 | 27 | 1006.4 |
| 20260505012340 | 81 | 5 | 2.6 | 7.0 | 0.00 | 0.00 | 0.00 | 28 | 1006.5 |
| 20260505011355 | 81 | 21 | 3.5 | 9.6 | 0.00 | 0.00 | 0.00 | 27 | 1006.6 |
| 20260505010344 | 82 | 28 | 3.5 | 6.1 | 0.00 | 0.00 | 0.00 | 27 | 1006.6 |
| 20260505005347 | 82 | 14 | 4.3 | 11.3 | 0.00 | 0.00 | 0.00 | 26 | 1006.6 |
| 20260505004331 | 82 | 360 | 4.3 | 8.7 | 0.00 | 0.00 | 0.00 | 26 | 1006.7 |
| 20260505003333 | 82 | 27 | 3.5 | 8.7 | 0.00 | 0.00 | 0.00 | 27 | 1006.7 |
| 20260505002338 | 82 | 14 | 5.2 | 9.6 | 0.00 | 0.00 | 0.00 | 25 | 1006.8 |
| 20260505001352 | 82 | 16 | 6.1 | 9.6 | 0.00 | 0.00 | 0.00 | 25 | 1006.8 |
| 20260505000329 | 83 | 17 | 4.3 | 10.4 | 0.00 | 0.00 | 0.00 | 25 | 1006.8 |
| 20260504235332 | 83 | 9 | 5.2 | 9.6 | 0.00 | 0.00 | 0.00 | 26 | 1006.8 |
| 20260504234336 | 82 | 13 | 6.1 | 9.6 | 0.00 | 0.00 | 0.00 | 25 | 1006.9 |
| 20260504233337 | 83 | 11 | 5.2 | 9.6 | 0.00 | 0.00 | 0.00 | 25 | 1006.8 |
| 20260504232338 | 83 | 38 | 5.2 | 10.4 | 0.00 | 0.00 | 0.00 | 23 | 1007.0 |
| 20260504231400 | 83 | 21 | 6.1 | 9.6 | 0.00 | 0.00 | 0.00 | 22 | 1007.0 |
| 20260504230334 | 83 | 279 | 3.5 | 7.0 | 0.00 | 0.00 | 0.00 | 24 | 1007.1 |
| 20260504225330 | 83 | 360 | 3.5 | 5.2 | 0.00 | 0.00 | 0.00 | 27 | 1007.1 |
| 20260504224345 | 83 | 298 | 2.6 | 10.4 | 0.00 | 0.00 | 0.00 | 25 | 1007.2 |
| 20260504223335 | 82 | 11 | 2.6 | 6.1 | 0.00 | 0.00 | 0.00 | 24 | 1007.3 |
| 20260504222403 | 83 | 269 | 7.0 | 8.7 | 0.00 | 0.00 | 0.00 | 32 | 1007.4 |
| 20260504221345 | 82 | 334 | 4.3 | 15.6 | 0.00 | 0.00 | 0.00 | 28 | 1007.5 |
| 20260504220329 | 83 | 5 | 3.5 | 7.0 | 0.00 | 0.00 | 0.00 | 26 | 1007.6 |
| 20260504215345 | 83 | 296 | 3.5 | 7.8 | 0.00 | 0.00 | 0.00 | 31 | 1007.8 |
| 20260504214342 | 82 | 10 | 2.6 | 7.0 | 0.00 | 0.00 | 0.00 | 30 | 1007.9 |
| 20260504213347 | 82 | 304 | 3.5 | 6.1 | 0.00 | 0.00 | 0.00 | 30 | 1007.9 |
| 20260504212335 | 81 | 319 | 3.5 | 7.0 | 0.00 | 0.00 | 0.00 | 34 | 1008.0 |
| 20260504211332 | 80 | 277 | 7.0 | 12.2 | 0.00 | 0.00 | 0.00 | 32 | 1008.1 |
| 20260504210327 | 81 | 280 | 4.3 | 7.8 | 0.00 | 0.00 | 0.00 | 38 | 1008.2 |
| 20260504205357 | 80 | 278 | 4.3 | 9.6 | 0.00 | 0.00 | 0.00 | 34 | 1008.3 |
| 20260504204402 | 80 | 344 | 2.6 | 7.8 | 0.00 | 0.00 | 0.00 | 36 | 1008.4 |
| 20260504203352 | 78 | 264 | 5.2 | 9.6 | 0.00 | 0.00 | 0.00 | 38 | 1008.5 |
| 20260504202333 | 78 | 291 | 3.5 | 7.0 | 0.00 | 0.00 | 0.00 | 34 | 1008.7 |
| 20260504201335 | 78 | 267 | 3.5 | 7.0 | 0.00 | 0.00 | 0.00 | 37 | 1008.6 |
| 20260504200335 | 78 | 238 | 4.3 | 6.1 | 0.00 | 0.00 | 0.00 | 39 | 1008.7 |
| 20260504195404 | 77 | 270 | 4.3 | 7.0 | 0.00 | 0.00 | 0.00 | 35 | 1008.8 |
| 20260504194328 | 77 | 263 | 3.5 | 6.1 | 0.00 | 0.00 | 0.00 | 40 | 1008.9 |
| 20260504193337 | 76 | 292 | 1.7 | 7.0 | 0.00 | 0.00 | 0.00 | 40 | 1008.9 |
| 20260504192359 | 76 | 274 | 1.7 | 7.8 | 0.00 | 0.00 | 0.00 | 43 | 1009.0 |
| 20260504191337 | 75 | 309 | 2.6 | 4.3 | 0.00 | 0.00 | 0.00 | 44 | 1009.1 |
| 20260504190404 | 75 | 277 | 4.3 | 7.0 | 0.00 | 0.00 | 0.00 | 42 | 1009.1 |
| 20260504185343 | 74 | 280 | 1.7 | 7.0 | 0.00 | 0.00 | 0.00 | 43 | 1009.2 |
| 20260504184330 | 74 | 298 | 2.6 | 6.1 | 0.00 | 0.00 | 0.00 | 44 | 1009.2 |
| 20260504183343 | 73 | 273 | 3.5 | 6.1 | 0.00 | 0.00 | 0.00 | 50 | 1009.3 |
| 20260504182355 | 73 | 335 | 3.5 | 9.6 | 0.00 | 0.00 | 0.00 | 47 | 1009.4 |
| 20260504181327 | 72 | 254 | 3.5 | 7.0 | 0.00 | 0.00 | 0.00 | 48 | 1009.4 |
| 20260504180337 | 71 | 255 | 4.3 | 7.8 | 0.00 | 0.00 | 0.00 | 50 | 1009.5 |
| 20260504175342 | 71 | 242 | 4.3 | 7.8 | 0.00 | 0.00 | 0.00 | 48 | 1009.5 |
| 20260504174415 | 70 | 248 | 4.3 | 9.6 | 0.00 | 0.00 | 0.00 | 52 | 1009.5 |
| 20260504173404 | 70 | 257 | 7.0 | 10.4 | 0.00 | 0.00 | 0.00 | 50 | 1009.4 |
| 20260504172341 | 69 | 268 | 6.1 | 8.7 | 0.00 | 0.00 | 0.00 | 50 | 1009.5 |
| 20260504171330 | 69 | 271 | 7.0 | 8.7 | 0.00 | 0.00 | 0.00 | 50 | 1009.5 |